This is the latest recevied weather packets stored in our database for station/object IZ5MJO-13. If no packets are shown the sender has not sent any weather packets the latest 10 day(s).
| Time | Temp. | Humidity | Pressure | Rain* | Wind** | Luminosity | Snow |
|---|---|---|---|---|---|---|---|
| 1787470485 | 22.22° C | 52% | 1007.7 hPa | - | - | - | - |
| 1787469585 | 22.22° C | 50% | 1007.8 hPa | - | - | - | - |
| 1787468685 | 21.67° C | 50% | 1007.6 hPa | - | - | - | - |
| 1787467785 | 21.11° C | 53% | 1007.6 hPa | - | - | - | - |
| 1787466884 | 21.11° C | 54% | 1007.7 hPa | - | - | - | - |
| 1787465989 | 20.56° C | 53% | 1007.6 hPa | - | - | - | - |
| 1787465088 | 20° C | 54% | 1007.6 hPa | - | - | - | - |
| 1787464188 | 19.44° C | 55% | 1007.4 hPa | - | - | - | - |
| 1787463288 | 18.89° C | 56% | 1007.5 hPa | - | - | - | - |
| 1787462388 | 18.33° C | 57% | 1007.3 hPa | - | - | - | - |
| 1787461487 | 18.33° C | 57% | 1007.3 hPa | - | - | - | - |
| 1787460587 | 18.33° C | 56% | 1007.3 hPa | - | - | - | - |
| 1787459687 | 18.33° C | 57% | 1007.2 hPa | - | - | - | - |
| 1787458787 | 18.33° C | 57% | 1007 hPa | - | - | - | - |
| 1787457887 | 18.33° C | 56% | 1006.9 hPa | - | - | - | - |
| 1787456986 | 18.33° C | 57% | 1006.9 hPa | - | - | - | - |
| 1787456086 | 18.33° C | 58% | 1006.8 hPa | - | - | - | - |
| 1787455186 | 18.89° C | 56% | 1006.8 hPa | - | - | - | - |
| 1787454285 | 18.89° C | 55% | 1006.7 hPa | - | - | - | - |
| 1787453385 | 19.44° C | 55% | 1006.7 hPa | - | - | - | - |
| 1787452485 | 19.44° C | 56% | 1006.7 hPa | - | - | - | - |
| 1787451585 | 19.44° C | 55% | 1006.8 hPa | - | - | - | - |
| 1787450684 | 19.44° C | 55% | 1006.7 hPa | - | - | - | - |
| 1787449784 | 19.44° C | 54% | 1006.8 hPa | - | - | - | - |
| 1787448884 | 19.44° C | 52% | 1006.9 hPa | - | - | - | - |
* Rain since midnight (hover to see other rain measurements)
** Current wind speed in m/s (hover to see current wind gust speed)